Regional Weather Roundup
Issued by NWS Upton, NY

Current Version | Previous Version | Graphics & Text | Print | Product List | Glossary Off
Versions: 1 2 3 4 5 6 7 8 9 10 11 12 13 14 15 16 17 18 19 20 21 22 23 24 25 26 27 28 29 30 31 32 33 34 35 36 37 38 39 40 41 42 43 44 45 46 47 48 49 50
000 ASUS41 KOKX 040804 RWROKX REGIONAL WEATHER ROUNDUP NATIONAL WEATHER SERVICE NEW YORK NY 400 AM EDT FRI SEP 04 2015 NOTE: "FAIR" INDICATES FEW OR NO CLOUDS BELOW 12,000 FEET WITH NO SIGNIFICANT WEATHER AND/OR OBSTRUCTIONS TO VISIBILITY. NYZ071-072-176-178-NJZ106-104-040900- NEW YORK CITY METRO AREA CITY SKY/WX TMP DP RH WIND PRES REMARKS CENTRAL PARK CLEAR 78 65 63 N3 29.95R LAGUARDIA APRT MOCLDY 77 67 71 NE7 29.92R KENNEDY INTL PTCLDY 76 69 79 NE5 29.93R NEWARK/LIBERTY MOCLDY 78 67 68 N9 29.92R BRNX BOT. GARD N/A 75 66 73 N7 29.93F TETERBORO CLEAR 76 65 68 N3 29.92R $$ NYZ177-179-078>081-040900- LONG ISLAND NEW YORK CITY SKY/WX TMP DP RH WIND PRES REMARKS FARMINGDALE PTCLDY 74 68 81 N7 29.92R ISLIP PTCLDY 73 69 87 N7 29.91R FOG SHIRLEY PTCLDY 70 68 93 CALM 29.93R FOG WESTHAMPTON MOCLDY 70 68 93 NE3 29.94R FOG MONTAUK POINT N/A 71 70 96 CALM 29.94R $$ NYZ052-065-067-040900- HUDSON VALLEY CITY SKY/WX TMP DP RH WIND PRES REMARKS WHITE PLAINS CLEAR 73 67 81 N6 29.94R NEWBURGH CLEAR 70 66 88 VRB6 29.98R MONTGOMERY CLEAR 69 66 90 CALM 29.97R POUGHKEEPSIE CLEAR 69 66 90 CALM 29.96R ALBANY PTCLDY 66 57 72 CALM 30.00R $$ NJZ001-105-106-008-010-013-015-019>022-104-040900- NEW JERSEY CITY SKY/WX TMP DP RH WIND PRES REMARKS NEWARK/LIBERTY MOCLDY 78 67 68 N9 29.92R TETERBORO CLEAR 76 65 68 N3 29.92R CALDWELL CLEAR 73 66 78 NE3 29.94R MORRISTOWN CLEAR 66 63 88 CALM 29.94R FOG SOMERVILLE CLEAR 71 67 87 NW3 29.92R SUSSEX CLEAR 67 65 93 NE3 29.97R ANDOVER N/A 69 67 93 VRB3 29.97R TRENTON CLEAR 73 67 81 CALM 29.92R MILLVILLE MOCLDY 70 68 93 CALM 29.91R FOG ATLANTIC CITY MOCLDY 69 66 90 CALM 29.91R FOG WRIGHTSTOWN PTCLDY 68 68 100 NE2 29.90R TOMS RIVER PTCLDY 64 61 88 CALM 29.92R BELMAR CLEAR 72 63 73 N5 29.92R $$ PAZ047>061-062-071-040900- EASTERN PENNSYLVANIA CITY SKY/WX TMP DP RH WIND PRES REMARKS PHILADELPHIA MOCLDY 79 69 71 NW3 29.91R ALLENTOWN PTCLDY 71 66 84 E3 29.95R SCRANTON CLEAR 68 65 90 E5 29.98S FOG $$ CTZ002-004>006-009-010-012-RIZ004-006-007-MAZ004-011-015-040900- SOUTHERN NEW ENGLAND IN CT CITY SKY/WX TMP DP RH WIND PRES REMARKS BRADLEY INTL PTCLDY 71 66 84 N8 29.95R HARTFORD PTCLDY 73 68 84 N7 29.95R DANBURY CLEAR 66 62 87 CALM 29.97R FOG WTRBRY/OXFORD PTCLDY 72 63 73 NE9 29.97S BRIDGEPORT CLEAR 76 68 76 NE7 29.93R MERIDEN CLEAR 74 66 76 N5 29.95R NEW HAVEN CLEAR 73 68 84 N10 29.93R CHESTER NOT AVBL GROTON CLEAR 70 69 97 NE6 29.93R FOG WILLIMANTIC MOCLDY 70 66 87 N5 29.96R IN RI CITY SKY/WX TMP DP RH WIND PRES REMARKS PROVIDENCE PTCLDY 72 67 84 NE6 29.95R BLOCK ISLAND CLOUDY 72 70 94 NE5 29.94R VSB 1/4 WESTERLY PTCLDY 70 68 93 N3 29.94R FOG IN MA CITY SKY/WX TMP DP RH WIND PRES REMARKS BOSTON CLOUDY 71 67 87 NE14 29.99R WORCESTER CLOUDY 70 65 84 N8 30.02R WESTFIELD CLEAR 71 63 75 N10 29.98R PROVINCETOWN N/A 68 64 88 NE7 29.98R NANTUCKET N/A N/A N/A N/A MISG N/A $$ ANZ330-335-338-340-345-350-353-355-040900- COASTAL MARINE OBSERVATIONS STATION/POSITION TIME SKY/WX TEMP WIND PRES VSBY WAVE AIR SEA DIR/SP/G HT/PER (UTC) (F) (DEG/KT/KT) (MB) (MI) (FT/S) NY HARB ENTRANCE 0650 78 78 CALM 1012.2 1/ 6 4S FIRE IS NOT AVBL 20S FIRE ISLAND 0650 76 76 360/ 2/ 4 1012.3 1/ 6 GREAT SOUTH BAY 0700 77 80 360/ 2/ 6 N/A 23SW MTP 0750 73 74 30/ 6/ 6 1012.7 1/12 HUDSON CANYON NOT AVBL KINGS POINT 0700 76 75 30/ 3/ 6 1012.2 EXECUTION ROCKS 0700 76 360/ 6/ 8 N/A CENTRAL LI SOUND NOT AVBL EASTERN LI SOUND 0700 72 71 60/ 4/ 4 N/A ROBBINS REEF 0700 79 350/ 7/ 9 1011.6 $$ >>>>>>>>>>>>>>>>>>>>>>>>>>>> KEY <<<<<<<<<<<<<<<<<<<<<<<<<<< > < > SKY/WX - SKY CONDITION/PRESENT WEATHER < > TMP - TEMPERATURE IN FAHRENHEIT < > DP - DEWPOINT IN FAHRENHEIT < > RH - RELATIVE HUMIDITY IN PERCENT < > WIND - DIRECTION AND SPEED IN MPH < > PRES - MEAN SEA LEVEL PRESSURE IN INCHES OF HG < > WCI - WIND CHILL INDEX < > VSB - VISIBILITY IN MILES < > HX - HEAT INDEX < > TC - TEMPERATURE IN CELSIUS < > VRB - VARIABLE WIND DIRECTION < > < >>>>>>>>>>>>>>>>>>>>>>>>>>>> KEY <<<<<<<<<<<<<<<<<<<<<<<<<<<

USA.gov is the U.S. government's official web portal to all federal, state and local government web resources and services.